DW1920 Weather Reports


Display with metric or nautical units.
time (UTC)temp
F
wind
direction
speed
MPH
gust
MPH
rain 1hr
in
rain 24hr
in
rain mn
in
humidity
%
barometer
mb
20260831004024 69 266 8.0 15.0 0.00 0.00 0.00 78 1013.5
20260831003004 69 275 10.0 15.0 0.00 0.00 0.00 78 1013.3
20260831001002 68 265 11.0 16.0 0.00 0.00 0.00 78 1013.1
20260831000024 69 268 10.0 14.0 0.00 0.00 0.00 76 1013.1
20260830235004 69 265 9.0 12.0 0.00 0.00 0.00 76 1012.8
20260830234002 69 264 9.0 12.0 0.00 0.00 0.00 76 1012.8
20260830233003 69 265 9.0 14.0 0.00 0.00 0.00 77 1012.8
20260830232003 68 271 11.0 14.0 0.00 0.00 0.00 80 1012.7
20260830231003 67 273 9.0 11.0 0.00 0.00 0.00 82 1012.7
20260830230003 66 272 8.0 11.0 0.00 0.00 0.00 83 1012.7
20260830225002 66 262 8.0 10.0 0.00 0.00 0.00 84 1012.6
20260830224003 66 262 8.0 11.0 0.00 0.00 0.00 85 1012.8
20260830223003 66 262 6.0 10.0 0.00 0.00 0.00 85 1012.8
20260830222024 66 265 7.0 13.0 0.00 0.00 0.00 85 1012.8
20260830221003 66 259 6.0 15.0 0.00 0.00 0.00 85 1012.9
20260830220003 66 258 9.0 14.0 0.00 0.00 0.00 85 1013.0
20260830215003 66 258 9.0 14.0 0.00 0.00 0.00 85 1012.9
20260830214003 67 248 3.0 14.0 0.00 0.00 0.00 84 1013.0
20260830213023 67 257 4.0 11.0 0.00 0.00 0.00 84 1012.9
20260830212024 67 258 4.0 11.0 0.00 0.00 0.00 83 1012.8
20260830211003 67 252 5.0 13.0 0.00 0.00 0.00 82 1012.9
20260830210002 67 259 5.0 13.0 0.00 0.00 0.00 82 1012.9
20260830205003 67 256 6.0 12.0 0.00 0.00 0.00 82 1013.0
20260830204024 68 257 7.0 14.0 0.00 0.00 0.00 82 1013.0
20260830203003 67 258 8.0 15.0 0.00 0.00 0.00 83 1013.0
20260830202003 66 252 6.0 13.0 0.00 0.00 0.00 85 1013.1
20260830201002 66 246 3.0 10.0 0.00 0.00 0.00 84 1013.2
20260830200003 67 251 4.0 14.0 0.00 0.00 0.00 84 1013.3
20260830195003 66 253 8.0 15.0 0.00 0.00 0.00 85 1013.4
20260830194003 67 240 4.0 13.0 0.00 0.00 0.00 85 1013.6
20260830193003 67 257 7.0 11.0 0.00 0.00 0.00 85 1013.6
20260830192024 66 266 8.0 12.0 0.00 0.00 0.00 86 1013.7
20260830191003 66 248 5.0 12.0 0.00 0.00 0.00 86 1014.1
20260830190003 66 251 3.0 16.0 0.00 0.00 0.00 87 1014.2
20260830185023 66 262 7.0 10.0 0.00 0.00 0.00 87 1014.5
20260830184003 65 266 8.0 12.0 0.00 0.00 0.00 87 1014.4
20260830183003 65 263 9.0 13.0 0.00 0.00 0.00 86 1014.8
20260830182002 66 252 4.0 9.0 0.00 0.00 0.00 85 1014.8
20260830181003 66 255 6.0 14.0 0.00 0.00 0.00 85 1014.8
20260830180003 66 259 10.0 16.0 0.00 0.00 0.00 85 1014.9
20260830175003 66 259 8.0 17.0 0.00 0.00 0.00 84 1014.9
20260830174002 66 255 8.0 16.0 0.00 0.00 0.00 84 1014.9
20260830173024 66 262 10.0 16.0 0.00 0.00 0.00 84 1014.8
20260830172024 66 258 7.0 15.0 0.00 0.00 0.00 84 1014.7
20260830171002 66 252 4.0 13.0 0.00 0.00 0.00 84 1014.7
20260830170003 66 256 7.0 13.0 0.00 0.00 0.00 84 1014.7
20260830165002 66 251 5.0 8.0 0.00 0.00 0.00 83 1014.8
20260830164003 67 259 5.0 8.0 0.00 0.00 0.00 81 1014.8
20260830163003 68 245 5.0 9.0 0.00 0.00 0.00 79 1014.9
20260830162002 69 259 6.0 12.0 0.00 0.00 0.00 78 1015.0
20260830161004 68 258 5.0 12.0 0.00 0.00 0.00 82 1015.2
20260830160003 67 261 6.0 13.0 0.00 0.00 0.00 81 1015.3
20260830155003 67 256 8.0 14.0 0.00 0.00 0.00 80 1015.3
20260830154024 67 261 7.0 12.0 0.00 0.00 0.00 81 1015.4
20260830153002 67 256 6.0 11.0 0.00 0.00 0.00 81 1015.5
20260830152003 66 265 7.0 14.0 0.00 0.00 0.00 80 1015.8
20260830151003 67 258 7.0 13.0 0.00 0.00 0.00 80 1015.8
20260830150003 66 259 5.0 12.0 0.00 0.00 0.00 81 1016.1
20260830145003 66 255 6.0 9.0 0.00 0.00 0.00 82 1016.2
20260830144003 66 250 3.0 8.0 0.00 0.00 0.00 83 1016.3
20260830143003 66 240 4.0 11.0 0.00 0.00 0.00 82 1016.3
20260830142003 66 234 7.0 12.0 0.00 0.00 0.00 80 1016.4
20260830141002 67 241 4.0 8.0 0.00 0.00 0.00 81 1016.4
20260830140003 66 256 6.0 12.0 0.00 0.00 0.00 82 1016.5
20260830135003 66 256 7.0 12.0 0.00 0.00 0.00 83 1016.7
20260830134003 66 231 5.0 9.0 0.00 0.00 0.00 84 1016.5
20260830133002 65 252 5.0 10.0 0.00 0.00 0.00 85 1016.9
20260830132003 64 232 4.0 7.0 0.00 0.00 0.00 86 1016.5
20260830131003 64 225 4.0 14.0 0.00 0.00 0.00 86 1016.8
20260830130024 64 223 9.0 14.0 0.00 0.00 0.00 86 1016.6
20260830125003 64 232 7.0 14.0 0.00 0.00 0.00 87 1016.7
20260830124003 64 218 10.0 13.0 0.00 0.00 0.00 87 1016.5
20260830123003 64 225 7.0 11.0 0.00 0.00 0.00 87 1016.6
20260830122003 64 239 4.0 12.0 0.00 0.00 0.00 87 1016.8
20260830121023 64 255 6.0 11.0 0.00 0.00 0.00 87 1017.2
20260830120003 63 264 7.0 11.0 0.00 0.00 0.00 88 1017.0
20260830115003 63 262 8.0 11.0 0.00 0.00 0.00 88 1016.9
20260830114003 63 256 4.0 11.0 0.00 0.00 0.00 89 1016.9
20260830113003 63 256 7.0 11.0 0.00 0.00 0.00 89 1017.0
20260830112002 62 260 4.0 10.0 0.00 0.00 0.00 90 1016.9
20260830111024 62 270 5.0 9.0 0.00 0.00 0.00 90 1017.0
20260830110024 62 249 4.0 8.0 0.00 0.00 0.00 91 1016.9
20260830105003 62 242 3.0 8.0 0.00 0.00 0.00 92 1017.1
20260830104003 62 260 4.0 8.0 0.00 0.00 0.00 92 1017.3
20260830103003 62 235 2.0 4.0 0.00 0.00 0.00 92 1017.5
20260830102002 62 237 2.0 8.0 0.00 0.00 0.00 92 1017.6
20260830101003 62 258 4.0 7.0 0.00 0.00 0.00 92 1017.6
20260830100003 62 236 3.0 6.0 0.00 0.00 0.00 92 1017.6
20260830095003 62 236 3.0 5.0 0.00 0.00 0.00 92 1017.5
20260830094003 62 246 3.0 7.0 0.00 0.00 0.00 93 1017.5
20260830093002 62 241 3.0 7.0 0.00 0.00 0.00 93 1017.4
20260830092003 61 235 3.0 8.0 0.00 0.00 0.00 93 1017.4
20260830091003 62 252 3.0 8.0 0.00 0.00 0.00 93 1017.5
20260830090002 62 232 3.0 6.0 0.00 0.00 0.00 93 1017.6
20260830085024 62 252 3.0 6.0 0.00 0.00 0.00 93 1017.5
20260830084003 62 232 2.0 3.0 0.00 0.00 0.00 93 1017.6
20260830083003 62 234 2.0 7.0 0.00 0.00 0.00 93 1017.4
20260830082003 62 254 5.0 10.0 0.00 0.00 0.00 93 1017.6
20260830081002 62 256 5.0 9.0 0.00 0.00 0.00 93 1017.6
20260830080003 62 254 4.0 10.0 0.00 0.00 0.00 93 1017.5
20260830075003 63 258 4.0 11.0 0.00 0.00 0.00 93 1017.6
20260830074003 63 260 7.0 11.0 0.00 0.00 0.00 93 1017.7
20260830073003 63 238 3.0 9.0 0.00 0.00 0.00 93 1017.6
20260830072002 63 261 5.0 8.0 0.00 0.00 0.00 93 1017.6
20260830071003 63 235 3.0 8.0 0.00 0.00 0.00 93 1017.5
20260830070002 63 261 5.0 10.0 0.00 0.00 0.00 93 1017.8
20260830065003 63 250 4.0 9.0 0.00 0.00 0.00 93 1017.6
20260830064003 63 248 4.0 9.0 0.00 0.00 0.00 92 1017.9
20260830063003 63 255 5.0 9.0 0.00 0.00 0.00 92 1017.7
20260830061024 63 246 3.0 7.0 0.00 0.00 0.00 92 1018.0
20260830060003 63 243 3.0 10.0 0.00 0.00 0.00 92 1018.1
20260830055002 63 244 3.0 6.0 0.00 0.00 0.00 92 1018.1
20260830054003 63 236 2.0 7.0 0.00 0.00 0.00 92 1018.2
20260830053003 63 251 4.0 11.0 0.00 0.00 0.00 92 1018.2
20260830052002 63 258 5.0 11.0 0.00 0.00 0.00 92 1018.2
20260830051003 63 257 4.0 9.0 0.00 0.00 0.00 92 1018.2
20260830050005 62 258 4.0 7.0 0.00 0.00 0.00 92 1018.3
20260830045003 62 250 3.0 7.0 0.00 0.00 0.00 92 1018.4
20260830044003 62 245 2.0 8.0 0.00 0.00 0.00 92 1018.4
20260830043003 62 228 5.0 9.0 0.00 0.00 0.00 92 1018.5
20260830042003 63 246 2.0 8.0 0.00 0.00 0.00 91 1018.6
20260830041004 63 257 4.0 8.0 0.00 0.00 0.00 91 1018.7
20260830040002 63 257 4.0 7.0 0.00 0.00 0.00 91 1018.6
20260830035003 62 239 2.0 5.0 0.00 0.00 0.00 91 1018.5
20260830034002 62 229 3.0 7.0 0.00 0.00 0.00 91 1018.6
20260830033003 62 223 4.0 7.0 0.00 0.00 0.00 90 1018.6
20260830032003 62 221 3.0 5.0 0.00 0.00 0.00 90 1018.5
20260830031002 62 225 3.0 4.0 0.00 0.00 0.00 89 1018.6
20260830030003 62 217 2.0 5.0 0.00 0.00 0.00 89 1018.7
20260830025003 62 231 2.0 5.0 0.00 0.00 0.00 89 1018.7
20260830024003 63 222 2.0 4.0 0.00 0.00 0.00 88 1018.9
20260830023003 63 219 3.0 5.0 0.00 0.00 0.00 88 1018.8
20260830022002 63 216 3.0 7.0 0.00 0.00 0.00 88 1018.8
20260830021003 63 221 5.0 9.0 0.00 0.00 0.00 88 1018.7
20260830020003 63 222 5.0 9.0 0.00 0.00 0.00 87 1018.7
20260830015023 63 227 5.0 9.0 0.00 0.00 0.00 87 1018.6
20260830014003 63 235 2.0 7.0 0.00 0.00 0.00 87 1018.9
20260830013003 63 241 2.0 5.0 0.00 0.00 0.00 87 1018.9
20260830012003 63 233 3.0 10.0 0.00 0.00 0.00 87 1018.9
20260830011003 63 263 7.0 10.0 0.00 0.00 0.00 87 1019.0
20260830010009 63 260 7.0 10.0 0.00 0.00 0.00 87 1019.0
20260830005010 63 263 8.0 13.0 0.00 0.00 0.00 86 1018.9